Regional Weather Roundup
Issued by NWS

Home | Current Version | Previous Version | Text Only | Print | Product List | Glossary On
Versions: 1 2 3 4 5 6 7 8 9 10 11 12 13 14 15 16 17 18 19 20 21 22 23 24 25 26 27 28 29 30 31 32 33 34 35 36 37 38 39 40 41 42 43 44 45 46 47 48 49 50
000
ASUS46 KPQR 211010
RWROR

OREGON REGIONAL WEATHER ROUNDUP
NATIONAL WEATHER SERVICE PORTLAND OR
300 AM PDT TUE OCT 21 2014

NOTE: "FAIR" INDICATES FEW OR NO CLOUDS BELOW 12,000 FEET WITH
NO SIGNIFICANT WEATHER AND/OR OBSTRUCTIONS TO VISIBILITY.

ORZ001>013-211100-
NORTHWEST OREGON


CITY           SKY/WX    TMP DP  RH WIND       PRES   REMARKS
ASTORIA        CLOUDY    55  52  89 S7        29.83R
NEWPORT        LGT RAIN  55  54  94 S18G29    29.93R
PORTLAND       CLOUDY    56  52  86 S12       29.89S
VANCOUVER WA   CLOUDY    57  50  77 S8        29.89R
SCAPPOOSE      CLOUDY    54  52  93 S3        29.88R
HILLSBORO      CLOUDY    55  52  89 S9        29.88R
AURORA         CLOUDY    56  50  80 S15G22    29.91R
MCMINNVILLE    CLOUDY    55  51  86 S7        29.91R
SALEM          MOCLDY    55  49  80 S13       29.91R
CORVALLIS      CLOUDY    54  50  87 S10       29.94S
EUGENE         MOCLDY    52  48  86 S7        29.95R
$$

ORZ021-028-211100-
SOUTHWEST OREGON


CITY           SKY/WX    TMP DP  RH WIND       PRES   REMARKS
NORTH BEND     CLOUDY    54  54 100 S10       29.97R
BROOKINGS      LGT RAIN  53  52  97 SE5       30.03R FOG
ROSEBURG       CLOUDY    51  46  83 CALM      29.99R
SEXTON SUMMIT  FOG       39  39 100 S15       29.99R VSB 1/4 WCI  31
MEDFORD        MOCLDY    48  45  89 CALM      30.03R
$$

ORZ009-041-211100-
COLUMBIA GORGE


CITY           SKY/WX    TMP DP  RH WIND       PRES   REMARKS
TROUTDALE      CLOUDY    57  49  74 S6        29.89R
THE DALLES     PTCLDY    49  47  93 W3        29.88S
$$

ORZ029>031-042>050-061>064-211100-
EASTERN OREGON


CITY           SKY/WX    TMP DP  RH WIND       PRES   REMARKS
REDMOND        CLEAR     34  31  88 S6        29.92S WCI  29
BEND           SUNNY     41  36  81 SW7       29.94S
KLAMATH FALLS  MOCLDY    36  34  92 CALM      30.02R
LAKEVIEW       CLOUDY    37  34  87 S6        30.03R WCI  33
HERMISTON      PTCLDY    48  46  93 S3        29.87R
PENDLETON      MOCLDY    50  45  83 S6        29.87R
JOHN DAY       CLOUDY    46  45  97 CALM      29.92S
MEACHAM        CLOUDY    43  42  97 CALM      29.90R
LA GRANDE      CLOUDY    48  34  57 NW6       29.88F
BAKER CITY     CLOUDY    45  38  76 W5        29.89R
BURNS          MOCLDY    37  35  92 N5        29.93R WCI  33
ROME             N/A     50  34  54 S13       29.89S
ONTARIO        CLOUDY    51  46  83 E5        29.88F
$$


USA.gov is the U.S. government's official web portal to all federal, state and local government web resources and services.